{"data":{"norad_id":59655,"intl_designator":"2024-084B","name":"STARLINK-31665","alt_names":[],"object_type":"PAYLOAD","status":"ACTIVE","operator":null,"country":"US","launch_date":"2024-05-06","launch_site_code":"AFETR","launch_vehicle":null,"mission":null,"orbit_class":"UNKNOWN","rcs_meters":null,"size_class":null,"mass_kg":null,"dimensions":null,"purposes":["comms"],"wikipedia_slug":null,"has_3d_model":false,"image_url":null,"decayed_at":null,"tle_current":{"epoch":"2026-09-21T14:03:51.758208Z","epoch_age_seconds":74426,"freshness":"FRESH","line1":"1 59655U 24084B   26264.58601572 -.00003180  00000+0 -10605-3 0  9990","line2":"2 59655  43.0009  11.9658 0000695 255.0447 105.0328 15.27594495134373","mean_motion":15.27594495,"eccentricity":6.95e-5,"inclination_deg":43.0009,"raan_deg":11.9658,"arg_perigee_deg":255.0447,"mean_anomaly_deg":105.0328,"bstar":-0.00010605,"rev_number":13437,"period_min":94.265854237711,"perigee_km":482.52884372113,"apogee_km":483.48254255548,"semimajor_km":6861.1426931383,"source":"CELESTRAK","updated_at":"2026-09-22T09:00:49.024388Z"}}}